Regional Weather Roundup
Issued by NWS

Home | Current Version | Previous Version | Text Only | Print | Product List | Glossary Off
Versions: 1 2 3 4 5 6 7 8 9 10 11 12 13 14 15 16 17 18 19 20 21 22 23 24 25 26 27 28 29 30 31 32 33 34 35 36 37 38 39 40 41 42 43 44 45 46 47 48 49 50

000
ASUS45 KBOI 141510
RWRID

IDAHO REGIONAL WEATHER ROUNDUP
NATIONAL WEATHER SERVICE BOISE ID
800 AM MST THU DEC 14 2017

NOTE: "FAIR" INDICATES FEW OR NO CLOUDS BELOW 12000 FEET
WITH NO SIGNIFICANT WEATHER AND/OR OBSTRUCTIONS TO VISIBILITY

IDZ012-014-141600-
SOUTHWEST IDAHO


CITY           SKY/WX    TMP DP  RH WIND       PRES   REMARKS
BOISE          CLOUDY    25  22  88 S6        30.55R FOG     WCI  18
CALDWELL       NOT AVBL
$$

IDZ016-017-141600-
SOUTHCENTRAL IDAHO


CITY           SKY/WX    TMP DP  RH WIND       PRES   REMARKS
BURLEY         FOG       22  20  92 E3        30.48F VSB 1/2
JEROME         CLOUDY    27  22  81 NE5       30.49F HAZE    WCI  22
TWIN FALLS     CLOUDY    24  23  96 E3        30.48F FOG
$$

IDZ019>023-141600-
SOUTHEAST IDAHO


CITY           SKY/WX    TMP DP  RH WIND       PRES   REMARKS
IDAHO FALLS    FOG       21  20  96 SW5       30.48R VSB 1/2 WCI  15
POCATELLO      FOG       21  20  96 SW3       30.49S VSB 1/4
REXBURG        FOG       19  17  92 CALM      30.43S VSB 1/4
$$

IDZ006-010-011-018-031-032-141600-
CENTRAL IDAHO MOUNTAINS


CITY           SKY/WX    TMP DP  RH WIND       PRES   REMARKS
MCCALL         FOG       11   7  84 CALM      30.40R VSB 1/4
HAILEY         CLEAR     18  16  93 NW9       30.46R WCI   6
STANLEY          N/A     12   7  80 E5        30.46S WCI   4
SALMON         CLOUDY    22  20  92 CALM      30.52R
CHALLIS        CLOUDY    21  17  84 N3        30.48S
$$

IDZ002-004-006-007-026-141600-
NORTHERN IDAHO


CITY           SKY/WX    TMP DP  RH WIND       PRES   REMARKS
LEWISTON       CLOUDY    31  29  92 S3        30.57S
LOWELL           N/A     31  30  96 CALM      30.57S
COEUR D`ALENE  CLOUDY    30  27  88 E5        30.50F WCI  25
MULLAN PASS    PTCLDY    25  21  85 W3        30.36F
$$



USA.gov is the U.S. government's official web portal to all federal, state and local government web resources and services.